Skip Page Navigation
NASA JPL Caltech
NASA Logo - Jet Propulsion Laboratory + View the NASA Portal
+ Center for Near-Earth Object Studies
JPL Home Earth Solar System Stars & Galaxies Technology
JPL Solar System Dynamics
BODIES ORBITS EPHEMERIDES TOOLS PHYSICAL DATA DISCOVERY FAQ SITE MAP
JPL Small-Body Database Browser
Search: [ help ]  
14283 (2206 P-L)
Classification: Main-belt Asteroid          SPK-ID: 2014283
Ephemeris | Orbit Diagram | Orbital Elements | Mission Design | Physical Parameters | Discovery Circumstances | Close-Approach Data ]

[ show orbit diagram ]
Orbital Elements at Epoch 2459000.5 (2020-May-31.0) TDB
Reference: JPL 28 (heliocentric ecliptic J2000)
 Element Value Uncertainty (1-sigma)   Units 
e .12138588965469 3.5394e-08  
a 2.599602828685415 1.0131e-08 au
q 2.284047726576587 9.4895e-08 au
i 5.293602821896981 4.4599e-06 deg
node 192.3381662286831 4.2446e-05 deg
peri 286.4076598298266 4.6906e-05 deg
M 351.8130685552516 1.9897e-05 deg
tp 2459035.315896380273
(2020-Jul-04.81589638)
8.465e-05 TDB
period 1530.942671437422
4.19
8.9492e-06
2.45e-08
d
yr
n .2351492362950411 1.3746e-09 deg/d
Q 2.915157930794243 1.136e-08 au
  Orbit Determination Parameters
   # obs. used (total)      1383  
   data-arc span      21964 days (60.13 yr)  
   first obs. used      1960-09-24  
   last obs. used      2020-11-12  
   planetary ephem.      DE431  
   SB-pert. ephem.      SB431-N16  
   condition code      0  
   norm. resid. RMS      .51399  
   source      ORB  
   producer      Otto Matic  
   solution date      2020-Dec-18 02:56:08  

Additional Information
 Earth MOID = 1.30677 au 
 Jupiter MOID = 2.17762 au 
 T_jup = 3.399 
[ show covariance matrix ]

Ephemeris | Orbit Diagram | Orbital Elements | Mission Design | Physical Parameters | Discovery Circumstances | Close-Approach Data ]

Physical Parameter Table
Parameter Symbol Value Units Sigma Reference Notes
absolute magnitude H 14.6   n/a MPO502277  

14283 (2206 P-L)          Discovered 1960-Sep-24 by van Houten, C. J., van Houten-Groeneveld, I., Gehrels, T. at Palomar
Reference: 20000320/Numbers.arcLast Updated: 2004-04-19

[ show close-approach data ]
Alternate Designations
 2206 P-L = 1996 GB19 
Ephemeris | Orbit Diagram | Orbital Elements | Mission Design | Physical Parameters | Discovery Circumstances | Close-Approach Data ]
ABOUT SSD CREDITS/AWARDS PRIVACY/COPYRIGHT GLOSSARY LINKS
FirstGov 2021-Jan-21 04:47 UT
(server date/time)  
NASA Home Page
Site Manager:   Ryan S. Park
Webmaster  Alan B. Chamberlin